Flag for U.S.A. Weather past 2 weeks in Greeley, Colorado, U.S.A.

Now
73 °F

Sunny.


Feels Like: 77 °F
Forecast: 46 / 84 °F
Wind: 3 mph from Northeast

Location: Greeley / Weld

Current Time: Sep 2, 2014 at 1:51:07 PM

Latest Report: Sep 2, 2014 at 12:55 PM


Visibility: 10 mi

Pressure: 30.05 "Hg

Humidity: 41%

Dew point: 48 °F

Location of GreeleyLocation

Historic Weather in Greeley — Graph

°F

Greeley temperature yesterday

Maximum temperature yesterday: 81 °F (at 5:55 PM)
Minimum temperature yesterday: 50 °F (at 4:35 AM)
Average temperature yesterday: 65 °F

Past Weeks' High & Low Weather Summary

 TemperatureHumidityPressure
High91 °F (Aug 18, 3:35 PM)83% (Aug 22, 6:55 AM)30.25 "Hg (Aug 22, 6:55 AM)
Low43 °F (Sep 2, 4:55 AM)17% (Aug 30, 2:55 PM)29.85 "Hg (Aug 19, 5:55 PM)
Average66 °F58%30.05 "Hg
* Reported Aug 18 12:35 PM — Sep 2 12:55 PM, Greeley, Weather by CustomWeather, © 2014

Note: Actual official high and low records may vary slightly from our data, if they occured in-between our weather recording intervals... More about our weather records

Advertising

Greeley weather history for previous 24 hours

 ConditionsComfort  
Time TempWeatherWind HumidityBarometerVisibility
12:55 PM
Sep 2
73 °FSunny.3 mph41%30.05 "Hg10 mi
12:35 PM73 °FSunny.No wind41%30.06 "Hg10 mi
11:55 AM72 °FSunny.3 mph44%30.08 "Hg10 mi
11:35 AM70 °FSunny.7 mph43%30.08 "Hg10 mi
11:15 AM70 °FSunny.5 mph43%30.10 "Hg10 mi
10:55 AM68 °FSunny.No wind46%30.10 "Hg10 mi
10:35 AM66 °FSunny.No wind49%30.11 "Hg10 mi
10:15 AM64 °FSunny.No wind52%30.10 "Hg10 mi
9:55 AM63 °FSunny.3 mph56%30.11 "Hg10 mi
9:35 AM63 °FSunny.No wind52%30.12 "Hg10 mi
9:15 AM57 °FSunny.No wind63%30.12 "Hg10 mi
8:55 AM55 °FSunny.No wind63%30.12 "Hg10 mi
8:35 AM52 °FSunny.No wind72%30.13 "Hg10 mi
8:15 AM50 °FSunny.3 mph67%30.13 "Hg10 mi
7:55 AM48 °FSunny.3 mph71%30.13 "Hg10 mi
7:35 AM46 °FSunny.No wind71%30.13 "Hg10 mi
6:55 AM45 °FClear.5 mph76%30.13 "Hg10 mi
6:35 AM45 °FClear.3 mph71%30.13 "Hg10 mi
5:55 AM45 °FClear.5 mph71%30.13 "Hg10 mi
5:35 AM45 °FClear.3 mph71%30.13 "Hg10 mi
5:15 AM45 °FClear.3 mph71%30.13 "Hg10 mi
4:55 AM43 °FClear.3 mph76%30.13 "Hg10 mi
4:35 AM46 °FClear.3 mph71%30.13 "Hg10 mi
4:15 AM46 °FClear.No wind76%30.14 "Hg10 mi
3:55 AM46 °FClear.No wind76%30.14 "Hg10 mi
3:35 AM48 °FClear.No wind76%30.14 "Hg10 mi
3:15 AM50 °FClear.No wind71%30.14 "Hg10 mi
2:55 AM52 °FClear.No wind67%30.14 "Hg10 mi
2:35 AM50 °FClear.No wind71%30.14 "Hg10 mi
2:15 AM50 °FClear.6 mph67%30.14 "Hg10 mi
1:55 AM52 °FClear.3 mph62%30.15 "Hg10 mi
1:35 AM54 °FClear.5 mph67%30.15 "Hg10 mi
1:15 AM52 °FClear.5 mph72%30.15 "Hg10 mi
12:55 AM52 °FClear.7 mph67%30.15 "Hg10 mi
12:35 AM54 °FClear.6 mph63%30.14 "Hg10 mi
12:15 AM54 °FClear.6 mph67%30.14 "Hg10 mi
11:55 PM
Sep 1
54 °FClear.No wind67%30.13 "Hg10 mi
11:35 PM55 °FClear.3 mph59%30.13 "Hg10 mi
11:15 PM57 °FClear.8 mph59%30.12 "Hg10 mi
10:55 PM57 °FClear.12 mph59%30.11 "Hg10 mi
10:35 PM59 °FClear.10 mph55%30.11 "Hg10 mi
10:15 PM61 °FClear.13 mph52%30.10 "Hg10 mi
9:55 PM61 °FClear.10 mph52%30.10 "Hg10 mi
9:35 PM63 °FClear.12 mph49%30.10 "Hg10 mi
9:15 PM63 °FClear.13 mph52%30.08 "Hg10 mi
8:55 PM63 °FClear.5 mph52%30.05 "Hg10 mi
8:35 PM63 °FClear.5 mph56%30.04 "Hg10 mi
8:15 PM64 °FSunny.No wind52%30.03 "Hg10 mi
7:55 PM66 °FSunny.No wind49%30.02 "Hg10 mi
7:35 PM70 °FSunny.No wind40%30.01 "Hg10 mi
7:15 PM73 °FSunny.6 mph38%29.99 "Hg10 mi
6:55 PM77 °FSunny.5 mph32%29.99 "Hg10 mi
6:35 PM79 °FSunny.No wind28%29.98 "Hg10 mi
6:15 PM79 °FSunny.No wind28%29.98 "Hg10 mi
5:55 PM81 °FSunny.6 mph28%29.98 "Hg10 mi
5:35 PM79 °FSunny.8 mph28%29.97 "Hg10 mi
5:15 PM79 °FSunny.No wind28%29.97 "Hg10 mi
4:55 PM79 °FSunny.3 mph28%29.97 "Hg10 mi
4:35 PM79 °FSunny.3 mph28%29.97 "Hg10 mi
4:15 PM77 °FSunny.7 mph30%29.96 "Hg2 mi
3:55 PM79 °FSunny.8 mph28%29.96 "Hg10 mi
3:35 PM77 °FSunny.5 mph28%29.96 "Hg8 mi
3:15 PM77 °FSunny.6 mph28%29.97 "Hg10 mi
2:55 PM77 °FSunny.3 mph28%29.98 "Hg8 mi
2:35 PM75 °FSunny.5 mph31%29.99 "Hg10 mi
2:15 PM75 °FSunny.7 mph31%30.00 "Hg10 mi
1:55 PM75 °FSunny.3 mph31%30.00 "Hg10 mi
1:35 PM73 °FSunny.5 mph33%30.01 "Hg10 mi
1:15 PM75 °FSunny.5 mph36%30.02 "Hg10 mi
Weather by CustomWeather, © 2014

See weather overviewHow to use our weather pages